星链-32246 (STARLINK-32246)

导读 | 星芒AI

STARLINK-32246 是 SpaceX Starlink 卫星互联网项目中的一颗低轨卫星,属于其第二代卫星星座计划的一部分。该卫星旨在提供全球高速互联网服务,特别关注偏远和网络覆盖不足的地区。它运行在约 550 公里的轨道高度,采用先进的通信技术,以提高连接速度和稳定性。Starlink 项目由数千颗卫星组成,致力于构建一个高效、低延迟的全球通信网络。

基本信息
目录编号:
60432
目录名称:
STARLINK-32246
国际标识:
2024-144H
轨道中心:
EARTH
卫星名称:
星链-32246 (STARLINK-32246)
卫星全名:
星链-32246 (STARLINK-32246)
卫星状态:
在轨 (已飞行495 天)
发射日期:
2024-08-12 UTC
国别 :
美国 (US)
星等 :
--
轨道信息
数据来源 国际轨道数据
星历时间: 2025-12-20T05:51:29+0800
11小时前
查看轨道信息
半长轴: 6853.421km
偏心率: 0.0001538
轨道倾角: 53.161°
近地点辐角 83.352°
升交点赤经 227.772°
平近点角 276.766°
近地点: 474.229km
远地点: 476.339km
周期: 94.107分钟
每日圈数: 15.301772
详细信息
卫星平台:
Starlink v2.0 mini
运营商:
太空探索技术公司
运营商所在国:
美国
制造商(研发单位):
太空探索技术公司
制造商所在国:
美国
使用方式:
暂无
卫星简介
星链(Starlink)计划是由太空探索技术公司(SpaceX)提出的一个巨型低轨卫星互联网星座项目,计划在2019年至2024年间在太空搭建由约1.2万颗卫星组成的“星链”网络,其中1584颗将部署在地球上空550千米处的近地轨道,并从2020年开始工作。该卫星仍在工作。
2D轨道图
3D轨道图
轨道高度分析图
轨道倾角分析图
轨道综合分析图
查看轨道综合分析图